Weather History for KY51 - March, 2014

Change the Weather History Date:

Friday, March 28, 2014

  Actual Average (KLSE) Record (KLSE)
Temperature  
Mean Temperature 36 °F 40 °F  
Max Temperature 41 °F 50 °F 80 °F (1986)
Min Temperature 30 °F 30 °F 4 °F (1923)
Degree Days  
Heating Degree Days 30 25  
Month to date heating degree days 872  
Since 1 July heating degree days 6381  
Cooling Degree Days 0 0  
Month to date cooling degree days 0  
Year to date cooling degree days 0  
Moisture  
Dew Point 29 °F    
Average Humidity 81    
Maximum Humidity 100    
Minimum Humidity 58    
Precipitation  
Precipitation 0.00 in 0.08 in 0.93 in (1931)
Month to date precipitation 1.79  
Year to date precipitation 3.96  
Snow  
Snow 0.00 in 0.10 in 9.80 in (1931)
Month to date snowfall 6.7  
Since 1 July snowfall 41.2  
Snow Depth -    
Sea Level Pressure  
Sea Level Pressure 29.94 in    
Wind  
Wind Speed 13 mph (North)    
Max Wind Speed 23 mph    
Max Gust Speed 30 mph    
Visibility 10 miles    
Events      
T = Trace of Precipitation, MM = Missing Value Source: NWS Daily Summary

Daily Weather History Graph

Daily Weather History Graph

Search for Another Location

Airport or City:

Trip Planner

Search our weather history database for the weather conditions in past years. The results will help you decide how hot, cold, wet, or windy it might be!

Date:

Astronomy

Mar. 28, 2014 Rise Set
Actual Time 6:52 AM CDT 7:25 PM CDT
Civil Twilight 6:23 AM CDT 7:54 PM CDT
Nautical Twilight 5:49 AM CDT 8:28 PM CDT
Astronomical Twilight 5:14 AM CDT 9:03 PM CDT
Moon 5:27 AM CDT (3/28) 5:19 PM CDT (3/28)
Length of Visible Light 13h 30m
Length of Day
12h 33m
Waning Crescent, 6% of the Moon is Illuminated
Mar 28
Waning Crescent
Mar 30
New
Apr 7
First Quarter
Apr 15
Full
Apr 22
Last Quarter

Hourly Weather History & Observations

Time (CDT) Temp. Windchill Dew Point Humidity Pressure Visibility Wind Dir Wind Speed Gust Speed Precip Events Conditions
12:15 AM 33.8 °F 23.5 °F 33.8 °F 100% 29.50 in 10.0 mi NNW 16.1 mph 20.7 mph N/A   Overcast
12:35 AM 33.4 °F 22.3 °F 33.4 °F 100% 29.51 in 5.0 mi NNW 18.4 mph 21.9 mph N/A   Overcast
12:55 AM 33.3 °F 22.8 °F 33.3 °F 100% 29.53 in 5.0 mi NNW 16.1 mph 23.0 mph N/A   Overcast
1:15 AM 33.4 °F 22.0 °F 33.4 °F 100% 29.54 in 7.0 mi North 19.6 mph - N/A   Overcast
1:35 AM 33.8 °F 22.8 °F 33.8 °F 100% 29.56 in 10.0 mi NNW 18.4 mph 24.2 mph N/A   Overcast
1:55 AM 33.8 °F 23.2 °F 33.8 °F 100% 29.58 in 7.0 mi NNW 17.3 mph 20.7 mph N/A   Overcast
2:15 AM 33.4 °F 22.3 °F 33.4 °F 100% 29.60 in 10.0 mi North 18.4 mph 24.2 mph N/A   Overcast
2:35 AM 33.4 °F 22.7 °F 33.4 °F 100% 29.62 in 10.0 mi NNW 17.3 mph 20.7 mph N/A   Overcast
2:55 AM 32.9 °F 22.0 °F 32.9 °F 100% 29.64 in 10.0 mi NNW 17.3 mph 21.9 mph N/A   Overcast
3:15 AM 32.5 °F 21.5 °F 32.5 °F 100% 29.66 in 10.0 mi NNW 17.3 mph - N/A   Overcast
3:35 AM 32.0 °F 21.6 °F 32.0 °F 100% 29.68 in 10.0 mi NNW 15.0 mph - N/A   Overcast
3:55 AM 32.0 °F 20.8 °F 32.0 °F 100% 29.69 in 10.0 mi NW 17.3 mph - N/A   Overcast
4:15 AM 31.6 °F 20.4 °F 31.5 °F 99% 29.71 in 10.0 mi NNW 17.3 mph 24.2 mph N/A   Overcast
4:35 AM 31.1 °F 18.9 °F 30.4 °F 97% 29.73 in 10.0 mi NNW 19.6 mph 24.2 mph N/A   Overcast
4:55 AM 31.1 °F 19.7 °F 30.6 °F 98% 29.75 in 10.0 mi NNW 17.3 mph 24.2 mph N/A   Overcast
5:15 AM 30.6 °F 17.3 °F 29.3 °F 95% 29.77 in 10.0 mi NNW 23.0 mph 29.9 mph N/A   Overcast
5:35 AM 30.2 °F 19.3 °F 29.3 °F 96% 29.80 in 10.0 mi NNW 15.0 mph 21.9 mph N/A   Overcast
5:55 AM 30.2 °F 17.8 °F 28.9 °F 95% 29.81 in 10.0 mi NNW 19.6 mph 23.0 mph N/A   Overcast
6:15 AM 30.2 °F 18.5 °F 28.8 °F 94% 29.83 in 10.0 mi NNW 17.3 mph - N/A   Overcast
6:35 AM 30.0 °F 19.5 °F 28.8 °F 95% 29.84 in 10.0 mi North 13.8 mph 23.0 mph N/A   Overcast
6:55 AM 30.0 °F 19.1 °F 28.4 °F 94% 29.86 in 10.0 mi North 15.0 mph 19.6 mph N/A   Overcast
7:15 AM 30.0 °F 17.5 °F 27.0 °F 88% 29.87 in 10.0 mi NNW 19.6 mph 25.3 mph N/A   Overcast
7:35 AM 30.0 °F 19.5 °F 27.0 °F 88% 29.90 in 10.0 mi NNW 13.8 mph - N/A   Overcast
7:55 AM 30.0 °F 19.5 °F 27.5 °F 90% 29.90 in 10.0 mi NNW 13.8 mph 19.6 mph N/A   Overcast
8:15 AM 30.2 °F 18.1 °F 27.5 °F 90% 29.90 in 10.0 mi North 18.4 mph - N/A   Overcast
8:35 AM 30.2 °F 19.3 °F 27.5 °F 90% 29.91 in 10.0 mi North 15.0 mph 19.6 mph N/A   Overcast
8:55 AM 30.2 °F 22.6 °F 27.5 °F 90% 29.94 in 10.0 mi North 8.1 mph - N/A   Overcast
9:15 AM 30.6 °F 20.2 °F 27.3 °F 88% 29.94 in 10.0 mi North 13.8 mph - N/A   Overcast
9:35 AM 30.9 °F 21.2 °F 27.3 °F 86% 29.94 in 10.0 mi North 12.7 mph 17.3 mph N/A   Overcast
9:55 AM 31.3 °F 23.9 °F 27.3 °F 85% 29.96 in 10.0 mi North 8.1 mph - N/A   Overcast
10:15 AM 31.1 °F 23.1 °F 26.1 °F 82% 29.99 in 10.0 mi NNW 9.2 mph - N/A   Overcast
10:35 AM 31.1 °F 23.7 °F 26.8 °F 84% 30.00 in 10.0 mi NW 8.1 mph - N/A   Overcast
10:55 AM 31.3 °F 23.3 °F 26.1 °F 81% 30.00 in 10.0 mi NNW 9.2 mph - N/A   Overcast
11:15 AM 31.8 °F 23.3 °F 26.1 °F 79% 29.99 in 10.0 mi North 10.4 mph - N/A   Overcast
11:35 AM 32.2 °F 23.8 °F 26.2 °F 79% 30.00 in 10.0 mi North 10.4 mph - N/A   Overcast
11:55 AM 32.4 °F 25.3 °F 26.1 °F 78% 30.02 in 10.0 mi NNW 8.1 mph - N/A   Overcast
12:15 PM 34.0 °F 27.2 °F 27.3 °F 77% 30.01 in 10.0 mi North 8.1 mph - N/A   Overcast
12:35 PM 34.9 °F 26.6 °F 27.9 °F 76% 30.02 in 10.0 mi North 11.5 mph - N/A   Mostly Cloudy
12:55 PM 34.9 °F 28.3 °F 27.3 °F 74% 30.03 in 10.0 mi NNW 8.1 mph 16.1 mph N/A   Mostly Cloudy
1:14 PM 35.6 °F 28.6 °F 27.5 °F 72% 30.05 in 10.0 mi North 9.2 mph - N/A   Mostly Cloudy
1:35 PM 37.0 °F 31.0 °F 27.9 °F 69% 30.05 in 10.0 mi NNW 8.1 mph - N/A   Mostly Cloudy
1:54 PM 37.0 °F 33.3 °F 28.0 °F 70% 30.05 in 10.0 mi NNW 4.6 mph - N/A   Mostly Cloudy
2:14 PM 37.8 °F 35.3 °F 28.6 °F 69% 30.05 in 10.0 mi North 3.5 mph - N/A   Scattered Clouds
2:34 PM 38.3 °F 35.9 °F 28.0 °F 67% 30.05 in 10.0 mi NNW 3.5 mph - N/A   Clear
2:55 PM 38.8 °F 35.4 °F 28.2 °F 66% 30.05 in 10.0 mi NNE 4.6 mph - N/A   Scattered Clouds
3:14 PM 39.7 °F 37.6 °F 27.7 °F 62% 30.06 in 10.0 mi NW 3.5 mph - N/A   Clear
3:34 PM 40.3 °F 37.1 °F 29.1 °F 64% 30.06 in 10.0 mi North 4.6 mph - N/A   Clear
3:55 PM 40.1 °F 36.9 °F 27.9 °F 62% 30.07 in 10.0 mi North 4.6 mph - N/A   Clear
4:14 PM 40.8 °F 37.8 °F 28.2 °F 61% 30.07 in 10.0 mi North 4.6 mph - N/A   Clear
4:35 PM 41.0 °F 38.0 °F 27.3 °F 58% 30.08 in 10.0 mi NNW 4.6 mph - N/A   Clear
4:54 PM 41.2 °F 37.3 °F 28.0 °F 60% 30.08 in 10.0 mi NNE 5.8 mph - N/A   Clear
5:15 PM 40.5 °F 37.3 °F 26.8 °F 58% 30.08 in 10.0 mi NNW 4.6 mph - N/A   Clear
5:34 PM 40.1 °F 38.0 °F 28.4 °F 63% 30.09 in 10.0 mi North 3.5 mph - N/A   Clear
5:55 PM 39.9 °F 37.8 °F 28.4 °F 63% 30.10 in 10.0 mi NNW 3.5 mph - N/A   Clear
6:14 PM 39.9 °F 37.8 °F 28.9 °F 65% 30.10 in 10.0 mi NNW 3.5 mph - N/A   Clear
6:35 PM 38.8 °F 34.6 °F 29.3 °F 69% 30.10 in 10.0 mi NNW 5.8 mph - N/A   Clear
6:54 PM 37.8 °F 35.3 °F 28.4 °F 69% 30.10 in 10.0 mi NNW 3.5 mph - N/A   Clear
7:15 PM 37.4 °F 34.9 °F 28.4 °F 70% 30.11 in 10.0 mi NNW 3.5 mph - N/A   Clear
7:34 PM 36.5 °F - 28.2 °F 72% 30.11 in 10.0 mi Calm Calm - N/A   Scattered Clouds
7:54 PM 35.6 °F 32.8 °F 28.2 °F 75% 30.12 in 10.0 mi WNW 3.5 mph - N/A   Overcast
8:14 PM 35.1 °F 32.2 °F 28.4 °F 77% 30.13 in 10.0 mi NNW 3.5 mph - N/A   Overcast
8:34 PM 34.9 °F 30.8 °F 27.7 °F 75% 30.13 in 10.0 mi North 4.6 mph - N/A   Mostly Cloudy
8:54 PM 34.2 °F 29.0 °F 27.5 °F 77% 30.13 in 10.0 mi North 5.8 mph - N/A   Scattered Clouds
9:14 PM 33.8 °F 27.7 °F 27.5 °F 78% 30.13 in 10.0 mi North 6.9 mph - N/A   Mostly Cloudy
9:34 PM 33.8 °F 26.4 °F 26.6 °F 75% 30.13 in 10.0 mi North 9.2 mph - N/A   Mostly Cloudy
9:54 PM 33.3 °F 26.4 °F 26.4 °F 76% 30.14 in 10.0 mi North 8.1 mph - N/A   Scattered Clouds
10:14 PM 32.9 °F 26.7 °F 26.4 °F 77% 30.14 in 10.0 mi NNE 6.9 mph - N/A   Mostly Cloudy
10:34 PM 32.9 °F 26.7 °F 26.2 °F 76% 30.13 in 10.0 mi NNE 6.9 mph - N/A   Overcast
10:54 PM 32.4 °F 26.0 °F 25.7 °F 76% 30.13 in 10.0 mi NE 6.9 mph - N/A   Mostly Cloudy
11:14 PM 32.5 °F 27.1 °F 25.7 °F 76% 30.14 in 10.0 mi NE 5.8 mph - N/A   Overcast
11:35 PM 32.9 °F 25.9 °F 25.5 °F 74% 30.14 in 10.0 mi NE 8.1 mph - N/A   Overcast
11:54 PM 32.5 °F 28.1 °F 25.3 °F 75% 30.14 in 10.0 mi NE 4.6 mph - N/A   Overcast